Home > Weather > A Coruña > Past weeks

Flag for Spain Weather for the Past 2 Weeks in A Coruña, Spain

Now
57 °F

Partly cloudy.


Feels Like: 54 °F
Forecast: 49 / 53 °F
Wind: 15 mph from West

Location: La Coruna / Alvedro

Current Time: Feb 13, 2016 at 4:13:02 AM

Latest Report: Feb 13, 2016 at 1:30 AM


Visibility: 3 mi

Pressure: 29.71 "Hg

Humidity: 94%

Dew point: 55 °F

Location of A CoruñaLocation

Historic Weather in A Coruña — Graph

°F

A Coruña Temperature Yesterday

Maximum temperature yesterday: 59 °F (at 1:30 PM)
Minimum temperature yesterday: 57 °F (at 12:00 AM)
Average temperature yesterday: 58 °F

High & Low Weather Summary for the Past Weeks

 TemperatureHumidityPressure
High61 °F (Feb 5, 3:00 PM)100% (Jan 29, 2:00 AM)30.72 "Hg (Jan 29, 2:00 AM)
Low32 °F (Feb 4, 7:30 AM)42% (Feb 5, 4:00 PM)29.62 "Hg (Feb 6, 2:30 PM)
Average52 °F85%30.23 "Hg
* Reported Jan 29 1:00 AM — Feb 13 1:30 AM, A Coruña, Weather by CustomWeather, © 2016

Note: Actual official high and low records may vary slightly from our data, if they occured in-between our weather recording intervals... More about our weather records

Advertising

A Coruña Weather History for the Previous 24 Hours

 ConditionsComfort  
Time TempWeatherWind HumidityBarometerVisibility
1:30 AM
Sat, Feb 13
57 °FPartly cloudy.15 mph94%29.71 "Hg3 mi
1:00 AM57 °FPartly cloudy.14 mph94%29.71 "Hg2 mi
12:30 AM59 °FPartly cloudy.14 mph94%29.71 "Hg5 mi
12:00 AM59 °FPartly cloudy.12 mph88%29.71 "Hg3 mi
11:30 PM
Fri, Feb 12
57 °FPartly cloudy.13 mph94%29.71 "Hg3 mi
11:00 PM59 °FPartly cloudy.12 mph88%29.71 "Hg6 mi
10:30 PM59 °FPassing clouds.12 mph88%29.74 "Hg2 mi
10:00 PM59 °FPartly cloudy.13 mph94%29.71 "HgN/A
9:30 PM59 °FPartly cloudy.12 mph94%29.71 "Hg4 mi
9:00 PM59 °FRain. Partly cloudy.12 mph94%29.71 "Hg5 mi
8:30 PM59 °FPartly cloudy.10 mph94%29.71 "Hg4 mi
8:00 PM59 °FRain. Partly cloudy.12 mph94%29.71 "Hg4 mi
7:30 PM57 °FRain. Partly cloudy.9 mph94%29.71 "Hg6 mi
7:00 PM57 °FRain. Partly cloudy.9 mph100%29.71 "Hg3 mi
6:30 PM57 °FRain. Broken clouds.10 mph100%29.71 "Hg3 mi
6:00 PM57 °FRain. Broken clouds.10 mph100%29.74 "Hg2 mi
5:30 PM57 °FBroken clouds.12 mph100%29.74 "Hg5 mi
5:00 PM57 °FLight rain. Broken clouds.14 mph100%29.74 "Hg4 mi
4:00 PM59 °FLight rain. Partly sunny.13 mph94%29.71 "Hg2 mi
3:30 PM57 °FLight rain. Broken clouds.15 mph100%29.71 "Hg1 mi
3:00 PM59 °FLight rain. Broken clouds.13 mph94%29.71 "Hg3 mi
2:30 PM57 °FRain. Partly sunny.14 mph100%29.74 "Hg1 mi
2:00 PM57 °FLight rain. Partly sunny.12 mph100%29.74 "Hg1 mi
1:30 PM59 °FLight rain. Broken clouds.10 mph94%29.74 "Hg2 mi
1:00 PM57 °FFog.12 mph100%29.74 "Hg1 mi
12:30 PM57 °FLight rain. Broken clouds.14 mph100%29.74 "Hg1 mi
12:00 PM57 °FLight rain. Broken clouds.10 mph100%29.74 "Hg4 mi
11:30 AM57 °FRain. Broken clouds.12 mph94%29.74 "Hg2 mi
11:00 AM57 °FRain. Broken clouds.8 mph100%29.74 "Hg2 mi
10:30 AM57 °FRain. Broken clouds.9 mph94%29.74 "Hg2 mi
10:00 AM57 °FRain. Broken clouds.9 mph94%29.74 "Hg2 mi
9:30 AM57 °FRain. Broken clouds.7 mph94%29.74 "Hg2 mi
9:00 AM57 °FLight rain. Broken clouds.9 mph94%29.74 "Hg2 mi
8:30 AM57 °FPassing clouds.10 mph94%29.74 "Hg6 mi
8:00 AM57 °FPartly cloudy.13 mph94%29.74 "HgN/A
7:30 AM57 °FPartly cloudy.15 mph94%29.77 "HgN/A
7:00 AM57 °FPartly cloudy.15 mph94%29.77 "HgN/A
6:30 AM57 °FLight rain. Partly cloudy.15 mph94%29.77 "HgN/A
6:00 AM57 °FRain. Passing clouds.15 mph94%29.77 "Hg4 mi
5:30 AM57 °FLight rain. Passing clouds.16 mph94%29.74 "Hg5 mi
Weather by CustomWeather, © 2016

See weather overviewHow to use our weather pages